TimePDT,TemperatureF,Dew PointF,Humidity,Sea Level PressureIn,VisibilityMPH,Wind Direction,Wind SpeedMPH,Gust SpeedMPH,PrecipitationIn,Events,Conditions,WindDirDegrees,DateUTC
12:56 AM,48.0,34.0,58,29.93,10.0,South,4.6,-,N/A,,Partly Cloudy,180,2014-04-03 07:56:00
1:56 AM,48.0,33.1,56,29.93,10.0,SSW,6.9,-,N/A,,Partly Cloudy,200,2014-04-03 08:56:00
2:56 AM,46.9,33.1,59,29.94,10.0,SW,5.8,-,N/A,,Partly Cloudy,220,2014-04-03 09:56:00
3:56 AM,45.0,30.9,58,29.94,10.0,SSW,8.1,-,N/A,,Partly Cloudy,200,2014-04-03 10:56:00
4:56 AM,44.1,30.0,58,29.97,10.0,SSW,6.9,-,N/A,,Clear,200,2014-04-03 11:56:00
5:56 AM,43.0,30.0,60,29.98,10.0,SSW,9.2,-,N/A,,Clear,210,2014-04-03 12:56:00
6:56 AM,46.0,28.9,51,30.01,10.0,SW,5.8,-,N/A,,Clear,230,2014-04-03 13:56:00
7:56 AM,50.0,28.0,43,30.04,10.0,SW,4.6,-,N/A,,Clear,230,2014-04-03 14:56:00
8:56 AM,53.1,28.0,38,30.04,10.0,Calm,Calm,-,N/A,,Partly Cloudy,0,2014-04-03 15:56:00
9:56 AM,55.9,27.0,33,30.05,10.0,Calm,Calm,-,N/A,,Scattered Clouds,0,2014-04-03 16:56:00
10:56 AM,57.9,28.0,32,30.06,10.0,Variable,3.5,-,N/A,,Mostly Cloudy,0,2014-04-03 17:56:00
11:56 AM,60.1,26.1,27,30.05,10.0,SSE,6.9,-,N/A,,Mostly Cloudy,160,2014-04-03 18:56:00
12:56 PM,61.0,25.0,25,30.03,10.0,Variable,3.5,-,N/A,,Mostly Cloudy,0,2014-04-03 19:56:00
1:56 PM,64.0,25.0,23,30.01,10.0,Calm,Calm,-,N/A,,Mostly Cloudy,0,2014-04-03 20:56:00
2:56 PM,66.0,23.0,20,29.98,10.0,Variable,3.5,-,N/A,,Scattered Clouds,0,2014-04-03 21:56:00
3:56 PM,64.9,21.0,19,29.96,10.0,South,5.8,-,N/A,,Scattered Clouds,180,2014-04-03 22:56:00
4:56 PM,66.9,18.0,15,29.94,10.0,South,10.4,-,N/A,,Mostly Cloudy,170,2014-04-03 23:56:00
5:56 PM,66.0,14.0,13,29.93,10.0,South,9.2,-,N/A,,Mostly Cloudy,170,2014-04-04 00:56:00
6:56 PM,64.0,21.9,20,29.93,10.0,SE,6.9,-,N/A,,Mostly Cloudy,140,2014-04-04 01:56:00
8:56 PM,60.8,21.2,22,29.96,10.0,South,4.6,-,N/A,,Scattered Clouds,170,2014-04-04 03:56:00
9:56 PM,60.1,21.0,22,29.94,10.0,South,10.4,-,N/A,,Mostly Cloudy,190,2014-04-04 04:56:00
10:56 PM,57.0,18.0,22,29.94,10.0,SSW,8.1,-,N/A,,Mostly Cloudy,200,2014-04-04 05:56:00
11:56 PM,55.9,18.0,23,29.94,10.0,SW,9.2,-,N/A,,Mostly Cloudy,220,2014-04-04 06:56:00